Home > Weather > Langen > Past weeks

Flag for Germany Weather for the Past 2 Weeks in Langen, Hesse, Germany

Now
43 °F

Passing clouds.


Feels Like: 35 °F
Forecast: 39 / 48 °F
Wind: 15 mph from South

Location: Frankfurt-M-Flughafen Airport

Current Time: Feb 8, 2016 at 4:08:37 AM

Latest Report: Feb 8, 2016 at 3:20 AM


Visibility: N/A

Pressure: 29.68 "Hg

Humidity: 76%

Dew point: 36 °F

Location of LangenLocation

Historic Weather in Langen — Graph

°F

Langen Temperature Yesterday

Maximum temperature yesterday: 50 °F (at 11:20 AM)
Minimum temperature yesterday: 36 °F (at 1:20 AM)
Average temperature yesterday: 43 °F

High & Low Weather Summary for the Past Weeks

 TemperatureHumidityPressure
High57 °F (Feb 1, 3:50 AM)100% (Jan 24, 2:50 AM)30.57 "Hg (Jan 24, 2:50 AM)
Low28 °F (Jan 29, 4:50 AM)54% (Jan 25, 3:50 PM)29.59 "Hg (Feb 7, 7:50 AM)
Average45 °F81%30.13 "Hg
* Reported Jan 24 2:20 AM — Feb 8 2:50 AM, Langen, Weather by CustomWeather, © 2016

Note: Actual official high and low records may vary slightly from our data, if they occured in-between our weather recording intervals... More about our weather records

Advertising

Langen Weather History for the Previous 24 Hours

 ConditionsComfort  
Time TempWeatherWind HumidityBarometerVisibility
2:50 AM
Mon, Feb 8
43 °FPassing clouds.8 mph81%29.68 "HgN/A
2:20 AM43 °FPassing clouds.13 mph81%29.68 "HgN/A
1:50 AM43 °FPassing clouds.12 mph81%29.71 "HgN/A
1:20 AM43 °FPartly cloudy.14 mph81%29.71 "HgN/A
12:50 AM43 °FPassing clouds.16 mph81%29.74 "HgN/A
12:20 AM43 °FPassing clouds.12 mph81%29.74 "HgN/A
11:20 PM
Sun, Feb 7
43 °FPassing clouds.12 mph81%29.77 "HgN/A
10:50 PM43 °FPassing clouds.13 mph81%29.77 "HgN/A
10:20 PM45 °FPartly cloudy.13 mph81%29.77 "HgN/A
9:50 PM45 °FPassing clouds.12 mph81%29.77 "HgN/A
9:20 PM45 °FPartly cloudy.14 mph81%29.77 "HgN/A
8:50 PM46 °FPassing clouds.13 mph76%29.77 "HgN/A
8:20 PM46 °FPartly cloudy.13 mph76%29.74 "HgN/A
7:50 PM46 °FPartly cloudy.14 mph76%29.74 "HgN/A
7:20 PM46 °FPartly cloudy.15 mph76%29.74 "HgN/A
6:50 PM46 °FPassing clouds.15 mph76%29.74 "HgN/A
6:20 PM46 °FPassing clouds.16 mph71%29.71 "HgN/A
5:50 PM48 °FPartly cloudy.14 mph66%29.71 "HgN/A
5:20 PM48 °FBroken clouds.15 mph66%29.71 "HgN/A
4:20 PM48 °FBroken clouds.10 mph82%29.68 "HgN/A
3:50 PM48 °FBroken clouds.14 mph82%29.68 "HgN/A
3:20 PM48 °FBroken clouds.10 mph82%29.65 "HgN/A
2:50 PM48 °FBroken clouds.9 mph82%29.65 "HgN/A
2:20 PM46 °FLight rain. Partly sunny.8 mph93%29.65 "HgN/A
1:50 PM46 °FLight rain. Broken clouds.10 mph93%29.65 "HgN/A
1:20 PM48 °FLight rain. Broken clouds.13 mph87%29.65 "HgN/A
12:50 PM48 °FLight rain. Broken clouds.13 mph87%29.62 "HgN/A
12:20 PM48 °FLight rain. Broken clouds.17 mph82%29.62 "HgN/A
11:50 AM50 °FLight rain. Partly sunny.20 mph76%29.62 "HgN/A
11:20 AM50 °FLight rain. Partly sunny.20 mph76%29.59 "HgN/A
10:50 AM48 °FLight rain. Broken clouds.16 mph76%29.59 "HgN/A
10:20 AM46 °FSunny.14 mph76%29.59 "Hg10 mi
9:50 AM43 °FPassing clouds.7 mph76%29.59 "HgN/A
9:20 AM41 °FPassing clouds.3 mph81%29.59 "HgN/A
8:50 AM39 °FPassing clouds.3 mph87%29.59 "HgN/A
8:20 AM37 °FSunny.2 mph93%29.62 "Hg10 mi
7:50 AM37 °FSunny.2 mph93%29.59 "Hg10 mi
7:20 AM37 °FPassing clouds.3 mph93%29.62 "HgN/A
6:50 AM37 °FPassing clouds.3 mph93%29.62 "HgN/A
6:20 AM37 °FPassing clouds.3 mph87%29.62 "HgN/A
5:50 AM37 °FClear.6 mph87%29.62 "Hg10 mi
5:20 AM36 °FClear.3 mph93%29.62 "Hg10 mi
4:20 AM36 °FPassing clouds.3 mph93%29.65 "HgN/A
Weather by CustomWeather, © 2016

See weather overviewHow to use our weather pages